Year,Month,Day,Hour,Minute,Value (Times are PST for windgust in km/hr)
2013,03,19,00,00,3.20
2013,03,19,00,02,1.60
2013,03,19,00,07,3.20
2013,03,19,00,08,1.60
2013,03,19,00,09,1.60
2013,03,19,00,19,1.60
2013,03,19,00,21,1.60
2013,03,19,00,23,1.60
2013,03,19,00,24,3.20
2013,03,19,00,25,3.20
2013,03,19,00,26,3.20
2013,03,19,00,27,1.60
2013,03,19,00,29,4.80
2013,03,19,00,30,4.80
2013,03,19,00,31,3.20
2013,03,19,00,32,4.80
2013,03,19,00,33,3.20
2013,03,19,00,34,4.80
2013,03,19,00,35,3.20
2013,03,19,00,36,4.80
2013,03,19,00,37,4.80
2013,03,19,00,38,3.20
2013,03,19,00,39,3.20
2013,03,19,00,40,1.60
2013,03,19,00,41,1.60
2013,03,19,00,42,1.60
2013,03,19,00,45,1.60
2013,03,19,00,46,3.20
2013,03,19,00,47,4.80
2013,03,19,00,51,1.60
2013,03,19,00,57,3.20
2013,03,19,00,58,3.20
2013,03,19,00,59,1.60
2013,03,19,01,01,1.60
2013,03,19,01,02,3.20
2013,03,19,01,04,1.60
2013,03,19,01,05,1.60
2013,03,19,01,07,3.20
2013,03,19,01,08,3.20
2013,03,19,01,09,3.20
2013,03,19,01,10,1.60
2013,03,19,01,11,3.20
2013,03,19,01,12,3.20
2013,03,19,01,13,3.20
2013,03,19,01,14,1.60
2013,03,19,01,15,3.20
2013,03,19,01,16,1.60
2013,03,19,01,17,3.20
2013,03,19,01,20,1.60
2013,03,19,01,21,4.80
2013,03,19,01,22,3.20
2013,03,19,01,23,1.60
2013,03,19,01,24,1.60
2013,03,19,01,25,1.60
2013,03,19,01,29,1.60
2013,03,19,01,30,1.60
2013,03,19,01,31,1.60
2013,03,19,01,32,1.60
2013,03,19,01,33,1.60
2013,03,19,01,34,3.20
2013,03,19,01,40,1.60
2013,03,19,01,51,3.20
2013,03,19,01,52,1.60
2013,03,19,01,55,1.60
2013,03,19,02,00,1.60
2013,03,19,02,01,4.80
2013,03,19,02,02,1.60
2013,03,19,02,04,1.60
2013,03,19,02,07,3.20
2013,03,19,02,08,1.60
2013,03,19,02,09,1.60
2013,03,19,02,11,1.60
2013,03,19,02,12,1.60
2013,03,19,02,28,1.60
2013,03,19,02,29,1.60
2013,03,19,02,36,1.60
2013,03,19,02,39,1.60
2013,03,19,02,40,1.60
2013,03,19,02,42,1.60
2013,03,19,02,43,3.20
2013,03,19,02,44,1.60
2013,03,19,02,45,1.60
2013,03,19,02,46,1.60
2013,03,19,02,47,1.60
2013,03,19,02,50,1.60
2013,03,19,02,51,1.60
2013,03,19,02,52,1.60
2013,03,19,03,00,1.60
2013,03,19,03,04,1.60
2013,03,19,03,06,1.60
2013,03,19,03,07,3.20
2013,03,19,03,08,1.60
2013,03,19,03,19,1.60
2013,03,19,03,20,1.60
2013,03,19,03,25,1.60
2013,03,19,03,26,1.60
2013,03,19,03,39,3.20
2013,03,19,03,40,3.20
2013,03,19,03,41,3.20
2013,03,19,03,44,1.60
2013,03,19,03,47,1.60
2013,03,19,03,48,4.80
2013,03,19,03,49,3.20
2013,03,19,03,50,3.20
2013,03,19,03,51,3.20
2013,03,19,03,52,1.60
2013,03,19,03,53,3.20
2013,03,19,03,54,3.20
2013,03,19,03,55,3.20
2013,03,19,03,56,1.60
2013,03,19,03,57,3.20
2013,03,19,03,58,4.80
2013,03,19,03,59,3.20
2013,03,19,04,00,3.20
2013,03,19,04,01,3.20
2013,03,19,04,02,1.60
2013,03,19,04,15,3.20
2013,03,19,04,16,3.20
2013,03,19,04,17,3.20
2013,03,19,04,18,3.20
2013,03,19,04,19,3.20
2013,03,19,04,20,3.20
2013,03,19,04,21,3.20
2013,03,19,04,22,3.20
2013,03,19,04,23,1.60
2013,03,19,04,24,1.60
2013,03,19,04,25,3.20
2013,03,19,04,26,4.80
2013,03,19,04,27,3.20
2013,03,19,04,28,3.20
2013,03,19,04,36,1.60
2013,03,19,04,37,1.60
2013,03,19,04,38,1.60
2013,03,19,04,39,1.60
2013,03,19,04,46,1.60
2013,03,19,04,47,3.20
2013,03,19,04,48,3.20
2013,03,19,04,49,3.20
2013,03,19,04,50,1.60
2013,03,19,04,51,3.20
2013,03,19,04,52,1.60
2013,03,19,04,53,3.20
2013,03,19,04,58,1.60
2013,03,19,04,59,1.60
2013,03,19,05,00,1.60
2013,03,19,05,01,3.20
2013,03,19,05,02,1.60
2013,03,19,05,03,1.60
2013,03,19,05,06,1.60
2013,03,19,05,16,1.60
2013,03,19,05,17,1.60
2013,03,19,05,20,1.60
2013,03,19,05,21,1.60
2013,03,19,05,22,1.60
2013,03,19,05,23,1.60
2013,03,19,05,24,1.60
2013,03,19,05,32,1.60
2013,03,19,05,33,1.60
2013,03,19,05,34,1.60
2013,03,19,05,35,3.20
2013,03,19,05,36,4.80
2013,03,19,05,37,6.40
2013,03,19,05,38,4.80
2013,03,19,05,39,4.80
2013,03,19,05,40,6.40
2013,03,19,05,41,4.80
2013,03,19,05,42,1.60
2013,03,19,05,47,1.60
2013,03,19,05,48,3.20
2013,03,19,06,00,1.60
2013,03,19,06,05,1.60
2013,03,19,06,07,1.60
2013,03,19,06,08,3.20
2013,03,19,06,10,1.60
2013,03,19,06,11,1.60
2013,03,19,06,12,1.60
2013,03,19,06,13,3.20
2013,03,19,06,14,1.60
2013,03,19,06,15,3.20
2013,03,19,06,16,3.20
2013,03,19,06,18,1.60
2013,03,19,06,19,1.60
2013,03,19,06,20,3.20
2013,03,19,06,21,4.80
2013,03,19,06,22,3.20
2013,03,19,06,23,3.20
2013,03,19,06,24,3.20
2013,03,19,06,25,3.20
2013,03,19,06,26,3.20
2013,03,19,06,28,1.60
2013,03,19,06,29,1.60
2013,03,19,06,30,4.80
2013,03,19,06,31,3.20
2013,03,19,06,32,3.20
2013,03,19,06,34,3.20
2013,03,19,06,35,1.60
2013,03,19,06,36,1.60
2013,03,19,06,37,3.20
2013,03,19,06,38,3.20
2013,03,19,06,39,4.80
2013,03,19,06,40,3.20
2013,03,19,06,41,3.20
2013,03,19,06,42,3.20
2013,03,19,06,43,1.60
2013,03,19,06,44,1.60
2013,03,19,06,47,3.20
2013,03,19,06,49,3.20
2013,03,19,06,50,1.60
2013,03,19,06,51,3.20
2013,03,19,06,52,3.20
2013,03,19,06,53,3.20
2013,03,19,06,58,1.60
2013,03,19,07,03,3.20
2013,03,19,07,04,4.80
2013,03,19,07,05,4.80
2013,03,19,07,06,3.20
2013,03,19,07,07,4.80
2013,03,19,07,08,3.20
2013,03,19,07,09,4.80
2013,03,19,07,10,1.60
2013,03,19,07,11,1.60
2013,03,19,07,15,1.60
2013,03,19,07,16,1.60
2013,03,19,07,20,3.20
2013,03,19,07,21,1.60
2013,03,19,07,22,3.20
2013,03,19,07,23,3.20
2013,03,19,07,24,3.20
2013,03,19,07,25,3.20
2013,03,19,07,26,1.60
2013,03,19,07,34,1.60
2013,03,19,07,36,1.60
2013,03,19,07,37,3.20
2013,03,19,07,38,1.60
2013,03,19,07,39,3.20
2013,03,19,07,40,3.20
2013,03,19,07,41,3.20
2013,03,19,07,43,3.20
2013,03,19,07,44,3.20
2013,03,19,07,46,1.60
2013,03,19,07,47,1.60
2013,03,19,07,48,3.20
2013,03,19,07,49,3.20
2013,03,19,07,50,3.20
2013,03,19,07,51,4.80
2013,03,19,07,52,4.80
2013,03,19,07,53,4.80
2013,03,19,07,54,3.20
2013,03,19,07,55,1.60
2013,03,19,08,08,1.60
2013,03,19,08,15,1.60
2013,03,19,08,16,1.60
2013,03,19,08,18,1.60
2013,03,19,08,20,3.20
2013,03,19,08,21,1.60
2013,03,19,08,22,3.20
2013,03,19,08,23,3.20
2013,03,19,08,24,1.60
2013,03,19,08,25,3.20
2013,03,19,08,26,6.40
2013,03,19,08,27,6.40
2013,03,19,08,28,4.80
2013,03,19,08,29,4.80
2013,03,19,08,30,3.20
2013,03,19,08,31,3.20
2013,03,19,08,32,1.60
2013,03,19,08,33,3.20
2013,03,19,08,34,4.80
2013,03,19,08,35,3.20
2013,03,19,08,36,1.60
2013,03,19,08,37,1.60
2013,03,19,08,38,6.40
2013,03,19,08,39,4.80
2013,03,19,08,40,1.60
2013,03,19,08,41,3.20
2013,03,19,08,42,4.80
2013,03,19,08,43,9.60
2013,03,19,08,44,8.10
2013,03,19,08,45,4.80
2013,03,19,08,46,4.80
2013,03,19,08,47,4.80
2013,03,19,08,48,6.40
2013,03,19,08,49,6.40
2013,03,19,08,50,4.80
2013,03,19,08,51,6.40
2013,03,19,08,52,9.60
2013,03,19,08,53,4.80
2013,03,19,08,54,4.80
2013,03,19,08,55,4.80
2013,03,19,08,56,4.80
2013,03,19,08,57,11.30
2013,03,19,08,58,6.40
2013,03,19,08,59,4.80
2013,03,19,09,00,8.10
2013,03,19,09,01,6.40
2013,03,19,09,02,8.10
2013,03,19,09,03,11.30
2013,03,19,09,04,9.60
2013,03,19,09,05,14.50
2013,03,19,09,06,4.80
2013,03,19,09,07,6.40
2013,03,19,09,08,11.30
2013,03,19,09,09,9.60
2013,03,19,09,10,9.60
2013,03,19,09,11,8.10
2013,03,19,09,12,12.90
2013,03,19,09,13,14.50
2013,03,19,09,14,12.90
2013,03,19,09,15,8.10
2013,03,19,09,16,17.70
2013,03,19,09,17,14.50
2013,03,19,09,18,4.80
2013,03,19,09,19,8.10
2013,03,19,09,20,8.10
2013,03,19,09,21,6.40
2013,03,19,09,22,9.60
2013,03,19,09,23,11.30
2013,03,19,09,24,20.90
2013,03,19,09,25,17.70
2013,03,19,09,26,12.90
2013,03,19,09,27,3.20
2013,03,19,09,28,9.60
2013,03,19,09,29,8.10
2013,03,19,09,30,9.60
2013,03,19,09,31,8.10
2013,03,19,09,32,9.60
2013,03,19,09,33,16.10
2013,03,19,09,34,14.50
2013,03,19,09,35,6.40
2013,03,19,09,36,8.10
2013,03,19,09,37,11.30
2013,03,19,09,38,11.30
2013,03,19,09,39,11.30
2013,03,19,09,40,6.40
2013,03,19,09,41,6.40
2013,03,19,09,42,19.30
2013,03,19,09,43,20.90
2013,03,19,09,44,11.30
2013,03,19,09,45,9.60
2013,03,19,09,46,9.60
2013,03,19,09,47,8.10
2013,03,19,09,48,11.30
2013,03,19,09,49,16.10
2013,03,19,09,50,4.80
2013,03,19,09,51,11.30
2013,03,19,09,52,8.10
2013,03,19,09,53,9.60
2013,03,19,09,54,6.40
2013,03,19,09,55,8.10
2013,03,19,09,56,8.10
2013,03,19,09,57,9.60
2013,03,19,09,58,6.40
2013,03,19,09,59,9.60
2013,03,19,10,00,6.40
2013,03,19,10,01,8.10
2013,03,19,10,02,8.10
2013,03,19,10,03,17.70
2013,03,19,10,04,8.10
2013,03,19,10,05,16.10
2013,03,19,10,06,19.30
2013,03,19,10,07,8.10
2013,03,19,10,08,4.80
2013,03,19,10,09,6.40
2013,03,19,10,10,6.40
2013,03,19,10,11,11.30
2013,03,19,10,12,9.60
2013,03,19,10,13,8.10
2013,03,19,10,14,14.50
2013,03,19,10,15,6.40
2013,03,19,10,16,11.30
2013,03,19,10,17,6.40
2013,03,19,10,18,14.50
2013,03,19,10,19,16.10
2013,03,19,10,20,12.90
2013,03,19,10,21,14.50
2013,03,19,10,22,11.30
2013,03,19,10,23,8.10
2013,03,19,10,24,8.10
2013,03,19,10,25,14.50
2013,03,19,10,26,9.60
2013,03,19,10,27,6.40
2013,03,19,10,28,9.60
2013,03,19,10,29,8.10
2013,03,19,10,30,16.10
2013,03,19,10,31,17.70
2013,03,19,10,32,11.30
2013,03,19,10,33,16.10
2013,03,19,10,34,16.10
2013,03,19,10,35,6.40
2013,03,19,10,36,16.10
2013,03,19,10,37,8.10
2013,03,19,10,38,16.10
2013,03,19,10,39,14.50
2013,03,19,10,40,19.30
2013,03,19,10,41,9.60
2013,03,19,10,42,16.10
2013,03,19,10,43,9.60
2013,03,19,10,44,6.40
2013,03,19,10,45,11.30
2013,03,19,10,46,14.50
2013,03,19,10,47,8.10
2013,03,19,10,48,9.60
2013,03,19,10,49,9.60
2013,03,19,10,50,17.70
2013,03,19,10,51,22.50
2013,03,19,10,52,19.30
2013,03,19,10,53,16.10
2013,03,19,10,54,9.60
2013,03,19,10,55,11.30
2013,03,19,10,56,14.50
2013,03,19,10,57,9.60
2013,03,19,10,58,6.40
2013,03,19,10,59,11.30
2013,03,19,11,00,22.50
2013,03,19,11,01,19.30
2013,03,19,11,02,19.30
2013,03,19,11,03,6.40
2013,03,19,11,04,9.60
2013,03,19,11,05,14.50
2013,03,19,11,06,6.40
2013,03,19,11,07,14.50
2013,03,19,11,08,6.40
2013,03,19,11,09,8.10
2013,03,19,11,10,8.10
2013,03,19,11,11,9.60
2013,03,19,11,12,9.60
2013,03,19,11,13,11.30
2013,03,19,11,14,14.50
2013,03,19,11,15,14.50
2013,03,19,11,16,6.40
2013,03,19,11,17,9.60
2013,03,19,11,18,25.70
2013,03,19,11,19,8.10
2013,03,19,11,20,14.50
2013,03,19,11,21,20.90
2013,03,19,11,22,24.20
2013,03,19,11,23,6.40
2013,03,19,11,24,17.70
2013,03,19,11,25,11.30
2013,03,19,11,26,17.70
2013,03,19,11,27,19.30
2013,03,19,11,28,11.30
2013,03,19,11,29,17.70
2013,03,19,11,30,6.40
2013,03,19,11,31,9.60
2013,03,19,11,32,4.80
2013,03,19,11,33,8.10
2013,03,19,11,34,9.60
2013,03,19,11,35,8.10
2013,03,19,11,36,4.80
2013,03,19,11,37,1.60
2013,03,19,11,38,17.70
2013,03,19,11,39,11.30
2013,03,19,11,40,6.40
2013,03,19,11,41,8.10
2013,03,19,11,42,11.30
2013,03,19,11,43,16.10
2013,03,19,11,44,17.70
2013,03,19,11,45,6.40
2013,03,19,11,46,8.10
2013,03,19,11,47,9.60
2013,03,19,11,48,6.40
2013,03,19,11,49,6.40
2013,03,19,11,50,8.10
2013,03,19,11,51,8.10
2013,03,19,11,52,3.20
2013,03,19,11,53,9.60
2013,03,19,11,54,6.40
2013,03,19,11,55,8.10
2013,03,19,11,56,14.50
2013,03,19,11,57,12.90
2013,03,19,11,58,6.40
2013,03,19,11,59,17.70
2013,03,19,12,00,8.10
2013,03,19,12,01,4.80
2013,03,19,12,02,3.20
2013,03,19,12,03,12.90
2013,03,19,12,04,14.50
2013,03,19,12,05,4.80
2013,03,19,12,06,6.40
2013,03,19,12,07,9.60
2013,03,19,12,08,19.30
2013,03,19,12,09,8.10
2013,03,19,12,10,4.80
2013,03,19,12,11,6.40
2013,03,19,12,12,6.40
2013,03,19,12,13,14.50
2013,03,19,12,14,9.60
2013,03,19,12,15,9.60
2013,03,19,12,16,19.30
2013,03,19,12,17,17.70
2013,03,19,12,18,9.60
2013,03,19,12,19,4.80
2013,03,19,12,20,6.40
2013,03,19,12,21,3.20
2013,03,19,12,22,11.30
2013,03,19,12,23,11.30
2013,03,19,12,24,6.40
2013,03,19,12,25,8.10
2013,03,19,12,26,9.60
2013,03,19,12,27,6.40
2013,03,19,12,28,8.10
2013,03,19,12,29,8.10
2013,03,19,12,30,6.40
2013,03,19,12,31,8.10
2013,03,19,12,32,9.60
2013,03,19,12,33,12.90
2013,03,19,12,34,14.50
2013,03,19,12,35,9.60
2013,03,19,12,36,6.40
2013,03,19,12,37,3.20
2013,03,19,12,38,14.50
2013,03,19,12,39,9.60
2013,03,19,12,40,4.80
2013,03,19,12,41,4.80
2013,03,19,12,42,3.20
2013,03,19,12,43,3.20
2013,03,19,12,44,1.60
2013,03,19,12,45,6.40
2013,03,19,12,46,6.40
2013,03,19,12,47,8.10
2013,03,19,12,48,16.10
2013,03,19,12,49,14.50
2013,03,19,12,50,4.80
2013,03,19,12,51,6.40
2013,03,19,12,52,8.10
2013,03,19,12,53,6.40
2013,03,19,12,54,4.80
2013,03,19,12,55,8.10
2013,03,19,12,56,8.10
2013,03,19,12,57,3.20
2013,03,19,12,58,4.80
2013,03,19,12,59,6.40
2013,03,19,13,00,8.10
2013,03,19,13,01,4.80
2013,03,19,13,02,3.20
2013,03,19,13,03,6.40
2013,03,19,13,04,4.80
2013,03,19,13,05,6.40
2013,03,19,13,06,8.10
2013,03,19,13,07,8.10
2013,03,19,13,08,11.30
2013,03,19,13,09,6.40
2013,03,19,13,10,11.30
2013,03,19,13,11,8.10
2013,03,19,13,12,6.40
2013,03,19,13,13,6.40
2013,03,19,13,14,6.40
2013,03,19,13,15,14.50
2013,03,19,13,16,16.10
2013,03,19,13,17,9.60
2013,03,19,13,18,6.40
2013,03,19,13,19,4.80
2013,03,19,13,20,6.40
2013,03,19,13,21,9.60
2013,03,19,13,22,8.10
2013,03,19,13,23,3.20
2013,03,19,13,24,4.80
2013,03,19,13,25,9.60
2013,03,19,13,26,6.40
2013,03,19,13,27,6.40
2013,03,19,13,28,6.40
2013,03,19,13,29,6.40
2013,03,19,13,30,11.30
2013,03,19,13,31,6.40
2013,03,19,13,32,8.10
2013,03,19,13,33,8.10
2013,03,19,13,34,4.80
2013,03,19,13,35,11.30
2013,03,19,13,36,11.30
2013,03,19,13,37,4.80
2013,03,19,13,38,4.80
2013,03,19,13,39,8.10
2013,03,19,13,40,6.40
2013,03,19,13,41,6.40
2013,03,19,13,42,3.20
2013,03,19,13,43,1.60
2013,03,19,13,45,3.20
2013,03,19,13,46,1.60
2013,03,19,13,47,1.60
2013,03,19,13,48,3.20
2013,03,19,13,49,8.10
2013,03,19,13,50,6.40
2013,03,19,13,51,6.40
2013,03,19,13,52,16.10
2013,03,19,13,53,3.20
2013,03,19,13,54,3.20
2013,03,19,13,55,1.60
2013,03,19,13,56,9.60
2013,03,19,13,57,3.20
2013,03,19,13,58,1.60
2013,03,19,13,59,8.10
2013,03,19,14,00,3.20
2013,03,19,14,01,1.60
2013,03,19,14,02,6.40
2013,03,19,14,03,6.40
2013,03,19,14,04,20.90
2013,03,19,14,05,8.10
2013,03,19,14,06,9.60
2013,03,19,14,07,14.50
2013,03,19,14,08,9.60
2013,03,19,14,09,16.10
2013,03,19,14,10,19.30
2013,03,19,14,11,19.30
2013,03,19,14,12,32.20
2013,03,19,14,13,16.10
2013,03,19,14,14,22.50
2013,03,19,14,15,14.50
2013,03,19,14,16,16.10
2013,03,19,14,17,6.40
2013,03,19,14,18,4.80
2013,03,19,14,19,6.40
2013,03,19,14,20,16.10
2013,03,19,14,21,11.30
2013,03,19,14,22,14.50
2013,03,19,14,23,6.40
2013,03,19,14,24,4.80
2013,03,19,14,25,3.20
2013,03,19,14,26,6.40
2013,03,19,14,27,3.20
2013,03,19,14,28,1.60
2013,03,19,14,29,1.60
2013,03,19,14,30,1.60
2013,03,19,14,31,3.20
2013,03,19,14,33,3.20
2013,03,19,14,34,3.20
2013,03,19,14,35,6.40
2013,03,19,14,36,4.80
2013,03,19,14,37,3.20
2013,03,19,14,40,3.20
2013,03,19,14,41,4.80
2013,03,19,14,42,8.10
2013,03,19,14,43,3.20
2013,03,19,14,44,3.20
2013,03,19,14,45,3.20
2013,03,19,14,46,1.60
2013,03,19,14,47,1.60
2013,03,19,14,48,1.60
2013,03,19,14,49,1.60
2013,03,19,14,51,3.20
2013,03,19,14,52,3.20
2013,03,19,14,53,1.60
2013,03,19,14,54,4.80
2013,03,19,14,55,3.20
2013,03,19,14,57,1.60
2013,03,19,14,58,3.20
2013,03,19,14,59,1.60
2013,03,19,15,00,1.60
2013,03,19,15,07,1.60
2013,03,19,15,08,3.20
2013,03,19,15,09,6.40
2013,03,19,15,10,6.40
2013,03,19,15,11,4.80
2013,03,19,15,12,6.40
2013,03,19,15,13,6.40
2013,03,19,15,14,8.10
2013,03,19,15,15,8.10
2013,03,19,15,16,4.80
2013,03,19,15,17,6.40
2013,03,19,15,18,4.80
2013,03,19,15,19,8.10
2013,03,19,15,20,8.10
2013,03,19,15,21,12.90
2013,03,19,15,22,17.70
2013,03,19,15,23,9.60
2013,03,19,15,24,6.40
2013,03,19,15,25,8.10
2013,03,19,15,26,4.80
2013,03,19,15,27,9.60
2013,03,19,15,28,6.40
2013,03,19,15,29,9.60
2013,03,19,15,30,8.10
2013,03,19,15,31,8.10
2013,03,19,15,32,8.10
2013,03,19,15,33,6.40
2013,03,19,15,34,4.80
2013,03,19,15,35,6.40
2013,03,19,15,36,4.80
2013,03,19,15,37,11.30
2013,03,19,15,38,6.40
2013,03,19,15,39,6.40
2013,03,19,15,40,6.40
2013,03,19,15,41,3.20
2013,03,19,15,42,1.60
2013,03,19,15,43,1.60
2013,03,19,15,44,1.60
2013,03,19,15,46,1.60
2013,03,19,15,47,1.60
2013,03,19,15,48,3.20
2013,03,19,15,49,3.20
2013,03,19,15,52,1.60
2013,03,19,15,53,3.20
2013,03,19,15,54,6.40
2013,03,19,15,55,4.80
2013,03,19,15,56,4.80
2013,03,19,15,57,3.20
2013,03,19,15,58,3.20
2013,03,19,15,59,3.20
2013,03,19,16,00,3.20
2013,03,19,16,01,3.20
2013,03,19,16,02,1.60
2013,03,19,16,05,3.20
2013,03,19,16,06,4.80
2013,03,19,16,07,3.20
2013,03,19,16,08,8.10
2013,03,19,16,09,8.10
2013,03,19,16,10,3.20
2013,03,19,16,11,3.20
2013,03,19,16,12,3.20
2013,03,19,16,13,6.40
2013,03,19,16,14,9.60
2013,03,19,16,15,19.30
2013,03,19,16,16,3.20
2013,03,19,16,17,4.80
2013,03,19,16,18,3.20
2013,03,19,16,19,6.40
2013,03,19,16,20,3.20
2013,03,19,16,21,3.20
2013,03,19,16,22,1.60
2013,03,19,16,23,4.80
2013,03,19,16,24,4.80
2013,03,19,16,25,4.80
2013,03,19,16,26,4.80
2013,03,19,16,27,3.20
2013,03,19,16,28,1.60
2013,03,19,16,29,3.20
2013,03,19,16,30,3.20
2013,03,19,16,31,3.20
2013,03,19,16,32,4.80
2013,03,19,16,33,4.80
2013,03,19,16,34,3.20
2013,03,19,16,35,3.20
2013,03,19,16,36,6.40
2013,03,19,16,37,4.80
2013,03,19,16,38,6.40
2013,03,19,16,39,6.40
2013,03,19,16,40,8.10
2013,03,19,16,41,9.60
2013,03,19,16,42,4.80
2013,03,19,16,43,11.30
2013,03,19,16,44,11.30
2013,03,19,16,45,3.20
2013,03,19,16,46,6.40
2013,03,19,16,47,9.60
2013,03,19,16,48,9.60
2013,03,19,16,49,14.50
2013,03,19,16,50,16.10
2013,03,19,16,51,4.80
2013,03,19,16,52,16.10
2013,03,19,16,53,16.10
2013,03,19,16,54,14.50
2013,03,19,16,55,11.30
2013,03,19,16,56,11.30
2013,03,19,16,57,9.60
2013,03,19,16,58,9.60
2013,03,19,16,59,6.40
2013,03,19,17,00,6.40
2013,03,19,17,01,6.40
2013,03,19,17,02,8.10
2013,03,19,17,03,3.20
2013,03,19,17,04,3.20
2013,03,19,17,05,11.30
2013,03,19,17,06,9.60
2013,03,19,17,07,9.60
2013,03,19,17,08,9.60
2013,03,19,17,09,9.60
2013,03,19,17,10,4.80
2013,03,19,17,11,6.40
2013,03,19,17,12,8.10
2013,03,19,17,13,8.10
2013,03,19,17,14,6.40
2013,03,19,17,15,4.80
2013,03,19,17,16,4.80
2013,03,19,17,17,19.30
2013,03,19,17,18,16.10
2013,03,19,17,19,9.60
2013,03,19,17,20,19.30
2013,03,19,17,21,19.30
2013,03,19,17,22,9.60
2013,03,19,17,23,14.50
2013,03,19,17,24,11.30
2013,03,19,17,25,9.60
2013,03,19,17,26,17.70
2013,03,19,17,27,9.60
2013,03,19,17,28,4.80
2013,03,19,17,29,19.30
2013,03,19,17,30,17.70
2013,03,19,17,31,9.60
2013,03,19,17,32,4.80
2013,03,19,17,33,11.30
2013,03,19,17,34,6.40
2013,03,19,17,35,14.50
2013,03,19,17,36,8.10
2013,03,19,17,37,3.20
2013,03,19,17,38,3.20
2013,03,19,17,39,6.40
2013,03,19,17,40,9.60
2013,03,19,17,41,11.30
2013,03,19,17,42,9.60
2013,03,19,17,43,4.80
2013,03,19,17,44,3.20
2013,03,19,17,45,6.40
2013,03,19,17,46,4.80
2013,03,19,17,47,4.80
2013,03,19,17,48,4.80
2013,03,19,17,49,6.40
2013,03,19,17,50,11.30
2013,03,19,17,51,9.60
2013,03,19,17,52,11.30
2013,03,19,17,53,9.60
2013,03,19,17,54,11.30
2013,03,19,17,55,6.40
2013,03,19,17,56,6.40
2013,03,19,17,57,8.10
2013,03,19,17,58,9.60
2013,03,19,17,59,16.10
2013,03,19,18,00,16.10
2013,03,19,18,01,14.50
2013,03,19,18,02,9.60
2013,03,19,18,03,9.60
2013,03,19,18,04,6.40
2013,03,19,18,05,6.40
2013,03,19,18,06,16.10
2013,03,19,18,07,11.30
2013,03,19,18,08,11.30
2013,03,19,18,09,17.70
2013,03,19,18,10,9.60
2013,03,19,18,11,6.40
2013,03,19,18,12,16.10
2013,03,19,18,13,8.10
2013,03,19,18,14,6.40
2013,03,19,18,15,6.40
2013,03,19,18,16,8.10
2013,03,19,18,17,14.50
2013,03,19,18,18,11.30
2013,03,19,18,19,8.10
2013,03,19,18,20,12.90
2013,03,19,18,21,11.30
2013,03,19,18,22,19.30
2013,03,19,18,23,6.40
2013,03,19,18,24,11.30
2013,03,19,18,25,8.10
2013,03,19,18,26,8.10
2013,03,19,18,27,4.80
2013,03,19,18,28,9.60
2013,03,19,18,29,16.10
2013,03,19,18,30,14.50
2013,03,19,18,31,11.30
2013,03,19,18,32,9.60
2013,03,19,18,33,8.10
2013,03,19,18,34,3.20
2013,03,19,18,35,6.40
2013,03,19,18,36,11.30
2013,03,19,18,37,6.40
2013,03,19,18,38,4.80
2013,03,19,18,39,4.80
2013,03,19,18,40,14.50
2013,03,19,18,41,6.40
2013,03,19,18,42,11.30
2013,03,19,18,43,14.50
2013,03,19,18,44,9.60
2013,03,19,18,45,12.90
2013,03,19,18,46,16.10
2013,03,19,18,47,8.10
2013,03,19,18,48,6.40
2013,03,19,18,49,6.40
2013,03,19,18,50,9.60
2013,03,19,18,51,4.80
2013,03,19,18,52,6.40
2013,03,19,18,53,1.60
2013,03,19,18,54,9.60
2013,03,19,18,55,6.40
2013,03,19,18,56,4.80
2013,03,19,18,57,6.40
2013,03,19,18,58,9.60
2013,03,19,18,59,4.80
2013,03,19,19,00,4.80
2013,03,19,19,01,6.40
2013,03,19,19,02,6.40
2013,03,19,19,03,4.80
2013,03,19,19,04,4.80
2013,03,19,19,05,6.40
2013,03,19,19,06,4.80
2013,03,19,19,07,4.80
2013,03,19,19,08,6.40
2013,03,19,19,09,9.60
2013,03,19,19,10,8.10
2013,03,19,19,11,4.80
2013,03,19,19,12,16.10
2013,03,19,19,13,9.60
2013,03,19,19,14,4.80
2013,03,19,19,15,9.60
2013,03,19,19,16,9.60
2013,03,19,19,17,11.30
2013,03,19,19,18,6.40
2013,03,19,19,19,4.80
2013,03,19,19,20,6.40
2013,03,19,19,21,8.10
2013,03,19,19,22,6.40
2013,03,19,19,23,8.10
2013,03,19,19,24,3.20
2013,03,19,19,25,4.80
2013,03,19,19,26,8.10
2013,03,19,19,27,9.60
2013,03,19,19,28,9.60
2013,03,19,19,29,8.10
2013,03,19,19,30,4.80
2013,03,19,19,31,9.60
2013,03,19,19,32,24.20
2013,03,19,19,33,11.30
2013,03,19,19,34,9.60
2013,03,19,19,35,14.50
2013,03,19,19,36,11.30
2013,03,19,19,37,9.60
2013,03,19,19,38,14.50
2013,03,19,19,39,12.90
2013,03,19,19,40,4.80
2013,03,19,19,41,6.40
2013,03,19,19,42,8.10
2013,03,19,19,43,3.20
2013,03,19,19,44,6.40
2013,03,19,19,45,11.30
2013,03,19,19,46,6.40
2013,03,19,19,47,14.50
2013,03,19,19,48,6.40
2013,03,19,19,49,6.40
2013,03,19,19,50,6.40
2013,03,19,19,51,6.40
2013,03,19,19,52,8.10
2013,03,19,19,53,8.10
2013,03,19,19,54,8.10
2013,03,19,19,55,16.10
2013,03,19,19,56,9.60
2013,03,19,19,57,9.60
2013,03,19,19,58,8.10
2013,03,19,19,59,19.30
2013,03,19,20,00,6.40
2013,03,19,20,01,8.10
2013,03,19,20,02,12.90
2013,03,19,20,03,11.30
2013,03,19,20,04,8.10
2013,03,19,20,05,9.60
2013,03,19,20,06,11.30
2013,03,19,20,07,8.10
2013,03,19,20,08,12.90
2013,03,19,20,09,14.50
2013,03,19,20,10,8.10
2013,03,19,20,11,8.10
2013,03,19,20,12,14.50
2013,03,19,20,13,8.10
2013,03,19,20,14,9.60
2013,03,19,20,15,3.20
2013,03,19,20,16,4.80
2013,03,19,20,17,6.40
2013,03,19,20,18,4.80
2013,03,19,20,19,4.80
2013,03,19,20,20,4.80
2013,03,19,20,21,16.10
2013,03,19,20,22,19.30
2013,03,19,20,23,9.60
2013,03,19,20,24,11.30
2013,03,19,20,25,9.60
2013,03,19,20,26,11.30
2013,03,19,20,27,9.60
2013,03,19,20,28,11.30
2013,03,19,20,29,8.10
2013,03,19,20,30,8.10
2013,03,19,20,31,8.10
2013,03,19,20,32,8.10
2013,03,19,20,33,9.60
2013,03,19,20,34,16.10
2013,03,19,20,35,11.30
2013,03,19,20,36,6.40
2013,03,19,20,37,9.60
2013,03,19,20,38,12.90
2013,03,19,20,39,9.60
2013,03,19,20,40,4.80
2013,03,19,20,41,6.40
2013,03,19,20,42,14.50
2013,03,19,20,43,4.80
2013,03,19,20,44,6.40
2013,03,19,20,45,9.60
2013,03,19,20,46,4.80
2013,03,19,20,47,4.80
2013,03,19,20,48,4.80
2013,03,19,20,49,4.80
2013,03,19,20,50,11.30
2013,03,19,20,51,6.40
2013,03,19,20,52,9.60
2013,03,19,20,53,9.60
2013,03,19,20,54,9.60
2013,03,19,20,55,8.10
2013,03,19,20,56,6.40
2013,03,19,20,57,6.40
2013,03,19,20,58,4.80
2013,03,19,20,59,4.80
2013,03,19,21,00,8.10
2013,03,19,21,01,4.80
2013,03,19,21,02,4.80
2013,03,19,21,03,4.80
2013,03,19,21,04,3.20
2013,03,19,21,05,4.80
2013,03,19,21,06,9.60
2013,03,19,21,07,6.40
2013,03,19,21,08,22.50
2013,03,19,21,09,20.90
2013,03,19,21,10,6.40
2013,03,19,21,11,17.70
2013,03,19,21,12,6.40
2013,03,19,21,13,6.40
2013,03,19,21,14,6.40
2013,03,19,21,15,3.20
2013,03,19,21,16,4.80
2013,03,19,21,17,11.30
2013,03,19,21,18,19.30
2013,03,19,21,19,3.20
2013,03,19,21,20,1.60
2013,03,19,21,21,3.20
2013,03,19,21,22,9.60
2013,03,19,21,23,6.40
2013,03,19,21,24,19.30
2013,03,19,21,25,4.80
2013,03,19,21,26,6.40
2013,03,19,21,27,9.60
2013,03,19,21,28,8.10
2013,03,19,21,29,16.10
2013,03,19,21,30,12.90
2013,03,19,21,31,12.90
2013,03,19,21,32,12.90
2013,03,19,21,33,9.60
2013,03,19,21,34,9.60
2013,03,19,21,35,9.60
2013,03,19,21,36,8.10
2013,03,19,21,37,8.10
2013,03,19,21,38,11.30
2013,03,19,21,39,17.70
2013,03,19,21,40,14.50
2013,03,19,21,41,6.40
2013,03,19,21,42,11.30
2013,03,19,21,43,20.90
2013,03,19,21,44,8.10
2013,03,19,21,45,6.40
2013,03,19,21,46,6.40
2013,03,19,21,47,8.10
2013,03,19,21,48,8.10
2013,03,19,21,49,8.10
2013,03,19,21,50,17.70
2013,03,19,21,51,14.50
2013,03,19,21,52,8.10
2013,03,19,21,53,4.80
2013,03,19,21,54,9.60
2013,03,19,21,55,8.10
2013,03,19,21,56,16.10
2013,03,19,21,57,6.40
2013,03,19,21,58,9.60
2013,03,19,21,59,6.40
2013,03,19,22,00,14.50
2013,03,19,22,01,9.60
2013,03,19,22,02,11.30
2013,03,19,22,03,11.30
2013,03,19,22,04,11.30
2013,03,19,22,05,16.10
2013,03,19,22,06,8.10
2013,03,19,22,07,8.10
2013,03,19,22,08,14.50
2013,03,19,22,09,6.40
2013,03,19,22,10,8.10
2013,03,19,22,11,6.40
2013,03,19,22,12,6.40
2013,03,19,22,13,16.10
2013,03,19,22,14,9.60
2013,03,19,22,15,17.70
2013,03,19,22,16,8.10
2013,03,19,22,17,11.30
2013,03,19,22,18,20.90
2013,03,19,22,19,17.70
2013,03,19,22,20,9.60